Regional Weather Roundup
Issued by NWS

Home | Current Version | Previous Version | Text Only | Print | Product List | Glossary Off
Versions: 1 2 3 4 5 6 7 8 9 10 11 12 13 14 15 16 17 18 19 20 21 22 23 24 25 26 27 28 29 30 31 32 33 34 35 36 37 38 39 40 41 42 43 44 45 46 47 48 49 50

000
ASUS43 KDMX 232006
RWRIA

WEATHER ROUNDUP FOR IOWA
NATIONAL WEATHER SERVICE DES MOINES IA
300 PM CDT TUE MAY 23 2017

NOTE: "FAIR" INDICATES FEW OR NO CLOUDS BELOW 12,000 FEET WITH NO
SIGNIFICANT WEATHER AND/OR OBSTRUCTIONS TO VISIBILITY.

* - THESE STATIONS ARE NOT NWS STATIONS...THUS NOT UNDER NWS
QUALITY CONTROL.  THEY ALSO DO NOT REPORT WEATHER SUCH
AS PRECIPITATION OR FOG.

IAZ001>003-012>014-020>022-031>034-043>046-232100-
   NORTHWEST IOWA

CITY           SKY/WX    TMP DP  RH WIND       PRES   REMARKS
CARROLL *      CLOUDY    59  46  63 NW17      29.80F
CHEROKEE *     CLOUDY    57  49  74 NW10      29.82F
DENISON *      CLOUDY    55  46  71 NW18G25   29.84S
LE MARS *      CLOUDY    55  46  71 NW15G23   29.85S
ORANGE CITY *  RAIN      50  48  93 N12       29.85R
SHELDON *      HVY RAIN  52  45  76 N17G35      N/A
SIOUX CITY     LGT RAIN  52  49  89 N10       29.86F
SPENCER        CLOUDY    55  44  66 N13       29.82S
STORM LAKE *     N/A     55  45  67 NW22      29.82S
$$

IAZ055>058-069>071-079>083-090>094-232100-
   SOUTHWEST IOWA

CITY           SKY/WX    TMP DP  RH WIND       PRES   REMARKS
ATLANTIC *     PTSUNNY   57  45  62 N15       29.81F
AUDUBON *      CLOUDY    57  46  67 NW10G18   29.82F
CLARINDA *     CLOUDY    59  46  63 NW10G16   29.85S
COUNCIL BLFS *   N/A     57  46  67 N10G18    29.84S
CRESTON *      CLOUDY    59  43  55 NW16      29.81F
HARLAN  *      CLOUDY    57  46  67 NW18      29.85S
LAMONI         CLOUDY    58  45  62 NW12      29.80S
RED OAK *      CLOUDY    57  46  67 W12G20    29.83S
SHENANDOAH *   CLOUDY    59  45  58 NW15      29.84F
$$

IAZ047>049-059>061-072>074-084-232100-
   CENTRAL IOWA

CITY           SKY/WX    TMP DP  RH WIND       PRES   REMARKS
AMES           LGT RAIN  57  51  80 NW8       29.78F
ANKENY *       LGT RAIN  55  50  82 NW8       29.79S
BOONE *        LGT RAIN  52  50  93 NW8       29.78S
DES MOINES     PTSUNNY   63  44  50 NW14G22   29.77F
GRINNELL*      DRIZZLE   56  47  71 NW12      29.79S
MARSHALLTOWN   CLOUDY    56  49  77 NW3       29.76F
NEWTON *       PTSUNNY   57  48  72 N12       29.77F
PELLA *        CLOUDY    60  50  69 N10       29.79F
PERRY *        CLOUDY    55  48  76 NW15      29.80S
$$

IAZ004>006-015-016-023>025-035-036-232100-
   NORTH CENTRAL IOWA

CITY           SKY/WX    TMP DP  RH WIND       PRES   REMARKS
ALGONA *       PTSUNNY   54  45  71 N13G20    29.79F
CLARION *      PTSUNNY   55  46  71 NW13      29.78S
ESTHERVILLE    CLOUDY    51  46  83 N20       29.80F
FORT DODGE *   CLOUDY    55  48  76 N10G16    29.80F
MASON CITY     CLOUDY    58  48  69 NW12      29.78F
FOREST CITY *  LGT RAIN  54  43  66 NE8       29.78S
WEBSTER CITY * CLOUDY    55  48  76 NW10      29.77F
IOWA FALLS *   PTSUNNY   59  47  65 NW12      29.77F
$$

IAZ007>011-017>019-026>030-037>042-050>054-066-232100-
   NORTHEAST IOWA

CITY           SKY/WX    TMP DP  RH WIND       PRES   REMARKS
CEDAR RAPIDS   CLOUDY    62  48  60 NW13      29.72F
CHARLES CITY * CLOUDY    55  50  82 N12       29.76S
CLINTON *      LGT RAIN  57  54  89 NW7       29.73F
DECORAH *        N/A     55  50  82 NW8       29.73S
DUBUQUE        CLOUDY    58  50  75 SW5       29.72F
MONTICELLO *   CLOUDY    63  48  59 NW9       29.71F
OELWEIN *      CLOUDY    55  52  88 NW13      29.75F
WATERLOO       CLOUDY    57  47  69 W13       29.75S
$$

IAZ064-065-067-068-078-232100-
   EAST CENTRAL IOWA

CITY           SKY/WX    TMP DP  RH WIND       PRES   REMARKS
DAVENPORT      CLOUDY    60  53  77 NW9       29.73F
IOWA CITY      CLOUDY    63  48  58 W9        29.74F
MT. PLEASANT * MOSUNNY   64  49  59 W6        29.74F
MUSCATINE *    PTSUNNY   63  48  59 NW5       29.73F
QUAD CITIES    PTSUNNY   61  55  81 NW9       29.72F
$$

IAZ062-063-075>077-085>089-095>099-232100-
   SOUTHEAST IOWA

CITY           SKY/WX    TMP DP  RH WIND       PRES   REMARKS
BURLINGTON     PTSUNNY   63  53  70 NW10      29.73F
FAIRFIELD *    PTSUNNY   63  46  55 NW10      29.74S
FORT MADISON * MOSUNNY   64  54  68 NW12      29.75F
KEOKUK *       MOSUNNY   63  52  67 W8G14     29.74F
OSKALOOSA *    CLOUDY    60  47  63 NW15      29.77S
CENTERVILLE *    N/A     61  45  55 NW12      29.78S
OTTUMWA        CLOUDY    60  47  61 NW12      29.76S
WASHINGTON *   CLOUDY    63  48  59 W15       29.75S
$$

ABBREVIATIONS USED IN REMARKS
   TC - TEMPERATURES IN CELSIUS
  WCI - WIND CHILL INDEX
   HX - HEAT INDEX
  VSB - VISIBILITY
$$




USA.gov is the U.S. government's official web portal to all federal, state and local government web resources and services.